Time,TemperatureF,DewpointF,PressureIn,WindDirection,WindDirectionDegrees,WindSpeedMPH,WindSpeedGustMPH,Humidity,HourlyPrecipIn,Conditions,Clouds,dailyrainin,SoftwareType,DateUTC
2013-03-21 00:00:00,35.3,25.0,29.17,WNW,293,0.4,0.4,66,0.00,,,0.00,WUHU216HW,2013-03-21 04:00:00,
2013-03-21 00:05:00,35.3,25.0,29.17,WNW,293,0.4,0.4,66,0.00,,,0.00,WUHU216HW,2013-03-21 04:05:00,
2013-03-21 00:30:00,35.1,25.2,29.17,North,0,8.1,8.1,67,0.00,,,0.00,WUHU216HW,2013-03-21 04:30:00,
2013-03-21 00:35:00,35.1,25.2,29.17,North,0,8.1,8.1,67,0.00,,,0.00,WUHU216HW,2013-03-21 04:35:00,
2013-03-21 01:00:00,33.8,24.3,29.16,North,0,3.4,3.4,68,0.00,,,0.00,WUHU216HW,2013-03-21 05:00:00,
2013-03-21 01:05:00,33.8,24.3,29.16,North,0,3.4,3.4,68,0.00,,,0.00,WUHU216HW,2013-03-21 05:05:00,
2013-03-21 01:30:00,33.5,23.6,29.15,WNW,293,4.7,4.7,67,0.00,,,0.00,WUHU216HW,2013-03-21 05:30:00,
2013-03-21 01:35:00,33.5,23.6,29.15,WNW,293,4.7,4.7,67,0.00,,,0.00,WUHU216HW,2013-03-21 05:35:00,
2013-03-21 02:00:00,33.5,21.4,29.16,North,0,9.8,9.8,61,0.00,,,0.00,WUHU216HW,2013-03-21 06:00:00,
2013-03-21 02:05:00,33.5,21.4,29.16,North,0,9.8,9.8,61,0.00,,,0.00,WUHU216HW,2013-03-21 06:05:00,
2013-03-21 02:30:00,33.1,21.5,29.16,NW,315,3.8,3.8,62,0.00,,,0.00,WUHU216HW,2013-03-21 06:30:00,
2013-03-21 02:35:00,33.1,21.5,29.16,NW,315,3.8,3.8,62,0.00,,,0.00,WUHU216HW,2013-03-21 06:35:00,
2013-03-21 03:00:00,32.8,20.8,29.16,NW,315,4.0,4.0,61,0.00,,,0.00,WUHU216HW,2013-03-21 07:00:00,
2013-03-21 03:05:00,32.8,20.8,29.16,NW,315,4.0,4.0,61,0.00,,,0.00,WUHU216HW,2013-03-21 07:05:00,
2013-03-21 03:30:00,32.0,19.8,29.15,NW,315,4.0,4.0,60,0.00,,,0.00,WUHU216HW,2013-03-21 07:30:00,
2013-03-21 03:35:00,32.0,19.8,29.15,NW,315,4.0,4.0,60,0.00,,,0.00,WUHU216HW,2013-03-21 07:35:00,
2013-03-21 04:00:00,31.3,18.3,29.13,NW,315,8.7,8.7,58,0.00,,,0.00,WUHU216HW,2013-03-21 08:00:00,
2013-03-21 04:05:00,31.3,18.3,29.13,NW,315,8.7,8.7,58,0.00,,,0.00,WUHU216HW,2013-03-21 08:05:00,
2013-03-21 04:30:00,31.0,17.9,29.13,NNW,338,3.8,3.8,58,0.00,,,0.00,WUHU216HW,2013-03-21 08:30:00,
2013-03-21 04:35:00,31.0,17.9,29.13,NNW,338,3.8,3.8,58,0.00,,,0.00,WUHU216HW,2013-03-21 08:35:00,
2013-03-21 05:00:00,30.4,17.7,29.13,NNW,338,1.3,1.3,59,0.00,,,0.00,WUHU216HW,2013-03-21 09:00:00,
2013-03-21 05:05:00,30.4,17.7,29.13,NNW,338,1.3,1.3,59,0.00,,,0.00,WUHU216HW,2013-03-21 09:05:00,
2013-03-21 05:30:00,29.7,17.9,29.13,NNW,338,2.0,2.0,61,0.00,,,0.00,WUHU216HW,2013-03-21 09:30:00,
2013-03-21 05:35:00,29.7,17.9,29.13,NNW,338,2.0,2.0,61,0.00,,,0.00,WUHU216HW,2013-03-21 09:35:00,
2013-03-21 06:00:00,29.0,17.6,29.14,North,0,1.8,1.8,62,0.00,,,0.00,WUHU216HW,2013-03-21 10:00:00,
2013-03-21 06:05:00,29.0,17.6,29.14,North,0,1.8,1.8,62,0.00,,,0.00,WUHU216HW,2013-03-21 10:05:00,
2013-03-21 06:30:00,28.3,16.9,29.15,NNW,338,3.1,3.1,62,0.00,,,0.00,WUHU216HW,2013-03-21 10:30:00,
2013-03-21 06:35:00,28.3,16.9,29.15,NNW,338,3.1,3.1,62,0.00,,,0.00,WUHU216HW,2013-03-21 10:35:00,
2013-03-21 07:00:00,27.7,16.7,29.15,NNW,338,5.1,5.1,63,0.00,,,0.00,WUHU216HW,2013-03-21 11:00:00,
2013-03-21 07:05:00,27.7,16.7,29.15,NNW,338,5.1,5.1,63,0.00,,,0.00,WUHU216HW,2013-03-21 11:05:00,
2013-03-21 07:30:00,27.0,16.4,29.16,West,270,2.0,2.0,64,0.00,,,0.00,WUHU216HW,2013-03-21 11:30:00,
2013-03-21 07:35:00,27.0,16.4,29.16,West,270,2.0,2.0,64,0.00,,,0.00,WUHU216HW,2013-03-21 11:35:00,
2013-03-21 08:00:00,27.4,16.7,29.15,NW,315,4.9,4.9,64,0.00,,,0.00,WUHU216HW,2013-03-21 12:00:00,
2013-03-21 08:05:00,27.4,16.7,29.15,NW,315,4.9,4.9,64,0.00,,,0.00,WUHU216HW,2013-03-21 12:05:00,
2013-03-21 08:30:00,28.4,17.1,29.15,NW,315,7.6,7.6,62,0.00,,,0.00,WUHU216HW,2013-03-21 12:30:00,
2013-03-21 08:35:00,28.4,17.1,29.15,NW,315,7.6,7.6,62,0.00,,,0.00,WUHU216HW,2013-03-21 12:35:00,
2013-03-21 09:00:00,28.8,15.5,29.15,NNW,338,9.2,9.2,57,0.00,,,0.00,WUHU216HW,2013-03-21 13:00:00,
2013-03-21 09:05:00,28.8,15.5,29.15,NNW,338,9.2,9.2,57,0.00,,,0.00,WUHU216HW,2013-03-21 13:05:00,
2013-03-21 09:30:00,29.5,12.3,29.15,WNW,293,13.2,13.2,48,0.00,,,0.00,WUHU216HW,2013-03-21 13:30:00,
2013-03-21 09:35:00,29.5,12.3,29.15,WNW,293,13.2,13.2,48,0.00,,,0.00,WUHU216HW,2013-03-21 13:35:00,
2013-03-21 10:00:00,29.2,10.4,29.15,West,270,7.8,7.8,45,0.00,,,0.00,WUHU216HW,2013-03-21 14:00:00,
2013-03-21 10:05:00,29.2,10.4,29.15,West,270,7.8,7.8,45,0.00,,,0.00,WUHU216HW,2013-03-21 14:05:00,
2013-03-21 10:30:00,29.9,10.5,29.15,NW,315,8.7,8.7,44,0.00,,,0.00,WUHU216HW,2013-03-21 14:30:00,
2013-03-21 10:35:00,29.9,10.5,29.15,NW,315,8.7,8.7,44,0.00,,,0.00,WUHU216HW,2013-03-21 14:35:00,
2013-03-21 11:00:00,29.3,10.5,29.15,NNW,338,14.3,14.3,45,0.00,,,0.00,WUHU216HW,2013-03-21 15:00:00,
2013-03-21 11:05:00,29.3,10.5,29.15,NNW,338,14.3,14.3,45,0.00,,,0.00,WUHU216HW,2013-03-21 15:05:00,
2013-03-21 11:30:00,30.8,9.8,29.15,NW,315,13.6,13.6,41,0.00,,,0.00,WUHU216HW,2013-03-21 15:30:00,
2013-03-21 11:35:00,30.8,9.8,29.15,NW,315,13.6,13.6,41,0.00,,,0.00,WUHU216HW,2013-03-21 15:35:00,
2013-03-21 12:00:00,30.6,9.2,29.15,WSW,248,15.0,15.0,40,0.00,,,0.00,WUHU216HW,2013-03-21 16:00:00,
2013-03-21 12:05:00,30.6,9.2,29.15,WSW,248,15.0,15.0,40,0.00,,,0.00,WUHU216HW,2013-03-21 16:05:00,
2013-03-21 12:30:00,32.0,11.4,29.14,NNW,338,14.8,14.8,42,0.00,,,0.00,WUHU216HW,2013-03-21 16:30:00,
2013-03-21 12:35:00,32.0,11.4,29.14,NNW,338,14.8,14.8,42,0.00,,,0.00,WUHU216HW,2013-03-21 16:35:00,
2013-03-21 13:00:00,31.0,9.5,29.14,WSW,248,22.4,22.4,40,0.00,,,0.00,WUHU216HW,2013-03-21 17:00:00,
2013-03-21 13:05:00,31.0,9.5,29.14,WSW,248,22.4,22.4,40,0.00,,,0.00,WUHU216HW,2013-03-21 17:05:00,
2013-03-21 13:30:00,31.0,8.8,29.14,NNW,338,12.3,12.3,39,0.00,,,0.00,WUHU216HW,2013-03-21 17:30:00,
2013-03-21 13:35:00,31.0,8.8,29.14,NNW,338,12.3,12.3,39,0.00,,,0.00,WUHU216HW,2013-03-21 17:35:00,
2013-03-21 14:00:00,31.3,10.3,29.13,NW,315,9.4,9.4,41,0.00,,,0.00,WUHU216HW,2013-03-21 18:00:00,
2013-03-21 14:05:00,31.3,10.3,29.13,NW,315,9.4,9.4,41,0.00,,,0.00,WUHU216HW,2013-03-21 18:05:00,
2013-03-21 14:30:00,33.3,11.0,29.13,NW,315,12.5,12.5,39,0.00,,,0.00,WUHU216HW,2013-03-21 18:30:00,
2013-03-21 14:35:00,33.3,11.0,29.13,NW,315,12.5,12.5,39,0.00,,,0.00,WUHU216HW,2013-03-21 18:35:00,
2013-03-21 15:00:00,31.9,10.3,29.13,NW,315,14.8,14.8,40,0.00,,,0.00,WUHU216HW,2013-03-21 19:00:00,
2013-03-21 15:05:00,31.9,10.3,29.13,NW,315,14.8,14.8,40,0.00,,,0.00,WUHU216HW,2013-03-21 19:05:00,
2013-03-21 15:30:00,31.0,12.5,29.13,West,270,7.6,7.6,46,0.00,,,0.00,WUHU216HW,2013-03-21 19:30:00,
2013-03-21 15:35:00,31.0,12.5,29.13,West,270,7.6,7.6,46,0.00,,,0.00,WUHU216HW,2013-03-21 19:35:00,
2013-03-21 16:00:00,32.4,11.3,29.13,NNW,338,8.7,8.7,41,0.00,,,0.00,WUHU216HW,2013-03-21 20:00:00,
2013-03-21 16:05:00,32.4,11.3,29.13,NNW,338,8.7,8.7,41,0.00,,,0.00,WUHU216HW,2013-03-21 20:05:00,
2013-03-21 16:30:00,31.0,10.0,29.14,NW,315,12.8,12.8,41,0.00,,,0.00,WUHU216HW,2013-03-21 20:30:00,
2013-03-21 16:35:00,31.0,10.0,29.14,NW,315,12.8,12.8,41,0.00,,,0.00,WUHU216HW,2013-03-21 20:35:00,
2013-03-21 17:00:00,31.3,9.2,29.14,NNW,338,15.0,15.0,39,0.00,,,0.00,WUHU216HW,2013-03-21 21:00:00,
2013-03-21 17:05:00,31.3,9.2,29.14,NNW,338,15.0,15.0,39,0.00,,,0.00,WUHU216HW,2013-03-21 21:05:00,
2013-03-21 17:30:00,31.7,10.1,29.15,WNW,293,14.1,14.1,40,0.00,,,0.00,WUHU216HW,2013-03-21 21:30:00,
2013-03-21 17:35:00,31.7,10.1,29.15,WNW,293,14.1,14.1,40,0.00,,,0.00,WUHU216HW,2013-03-21 21:35:00,
2013-03-21 18:00:00,30.8,10.4,29.16,WNW,293,10.3,10.3,42,0.00,,,0.00,WUHU216HW,2013-03-21 22:00:00,
2013-03-21 18:05:00,30.8,10.4,29.16,WNW,293,10.3,10.3,42,0.00,,,0.00,WUHU216HW,2013-03-21 22:05:00,
2013-03-21 18:30:00,30.6,10.2,29.17,NNW,338,9.8,9.8,42,0.00,,,0.00,WUHU216HW,2013-03-21 22:30:00,
2013-03-21 18:35:00,30.6,10.2,29.17,NNW,338,9.8,9.8,42,0.00,,,0.00,WUHU216HW,2013-03-21 22:35:00,
2013-03-21 19:00:00,29.7,9.8,29.18,WNW,293,10.7,10.7,43,0.00,,,0.00,WUHU216HW,2013-03-21 23:00:00,
2013-03-21 19:05:00,29.7,9.8,29.18,WNW,293,10.7,10.7,43,0.00,,,0.00,WUHU216HW,2013-03-21 23:05:00,
2013-03-21 19:30:00,29.0,10.2,29.19,WNW,293,5.1,5.1,45,0.00,,,0.00,WUHU216HW,2013-03-21 23:30:00,
2013-03-21 19:35:00,29.0,10.2,29.19,WNW,293,5.1,5.1,45,0.00,,,0.00,WUHU216HW,2013-03-21 23:35:00,
2013-03-21 20:00:00,28.8,10.1,29.20,WNW,293,7.6,7.6,45,0.00,,,0.00,WUHU216HW,2013-03-22 00:00:00,
2013-03-21 20:05:00,28.8,10.1,29.20,WNW,293,7.6,7.6,45,0.00,,,0.00,WUHU216HW,2013-03-22 00:05:00,
2013-03-21 20:30:00,28.3,10.1,29.21,WSW,248,6.3,6.3,46,0.00,,,0.00,WUHU216HW,2013-03-22 00:30:00,
2013-03-21 20:35:00,28.3,10.1,29.21,WSW,248,6.3,6.3,46,0.00,,,0.00,WUHU216HW,2013-03-22 00:35:00,
2013-03-21 21:00:00,27.9,10.7,29.22,WNW,293,11.6,11.6,48,0.00,,,0.00,WUHU216HW,2013-03-22 01:00:00,
2013-03-21 21:05:00,27.9,10.7,29.22,WNW,293,11.6,11.6,48,0.00,,,0.00,WUHU216HW,2013-03-22 01:05:00,
2013-03-21 21:30:00,27.7,10.5,29.22,NNW,338,9.8,9.8,48,0.00,,,0.00,WUHU216HW,2013-03-22 01:30:00,
2013-03-21 21:35:00,27.7,10.5,29.22,NNW,338,9.8,9.8,48,0.00,,,0.00,WUHU216HW,2013-03-22 01:35:00,
2013-03-21 22:00:00,27.7,10.5,29.23,WSW,248,4.0,4.0,48,0.00,,,0.00,WUHU216HW,2013-03-22 02:00:00,
2013-03-21 22:05:00,27.7,10.5,29.23,WSW,248,4.0,4.0,48,0.00,,,0.00,WUHU216HW,2013-03-22 02:05:00,
2013-03-21 22:30:00,27.2,10.5,29.23,WNW,293,3.4,3.4,49,0.00,,,0.00,WUHU216HW,2013-03-22 02:30:00,
2013-03-21 22:35:00,27.2,10.5,29.23,WNW,293,3.4,3.4,49,0.00,,,0.00,WUHU216HW,2013-03-22 02:35:00,
2013-03-21 23:00:00,27.4,10.2,29.22,WSW,248,4.7,4.7,48,0.00,,,0.00,WUHU216HW,2013-03-22 03:00:00,
2013-03-21 23:05:00,27.4,10.2,29.22,WSW,248,4.7,4.7,48,0.00,,,0.00,WUHU216HW,2013-03-22 03:05:00,
2013-03-21 23:30:00,27.0,10.4,29.23,West,270,7.4,7.4,49,0.00,,,0.00,WUHU216HW,2013-03-22 03:30:00,
2013-03-21 23:35:00,27.0,10.4,29.23,West,270,7.4,7.4,49,0.00,,,0.00,WUHU216HW,2013-03-22 03:35:00,